SKYNET 5C               
1 33055U 08030A   19258.86181726 -.00000148  00000-0  00000-0 0  9995
2 33055   0.0597 355.6718 0004361 183.4600 107.8356  1.00272863 41228
TURKSAT 3A              
1 33056U 08030B   19258.83828009  .00000137  00000-0  00000-0 0  9992
2 33056   0.0444  88.0481 0004738  69.0091 181.2323  1.00270629 27621
ARIANE 5 R/B            
1 33057U 08030C   19258.72642548  .00000636  00000-0  41285-3 0  9990
2 33057   1.6195  62.4823 7142683 147.6471 291.2805  2.44414621 97458
ARIANE 5 DEB [SYLDA]    
1 33058U 08030D   19258.69782673  .00370443 -54557-6  34578-2 0  9996
2 33058   2.2140  25.1231 4976285 248.0519  53.2241  5.82216305141852
ARIANE 5 DEB            
1 43382U 08030E   19258.75131570 -.00000201  00000-0  29813-3 0  9995
2 43382   1.9515  46.8421 7117245 179.7020 182.1904  2.45552826 51821
ARIANE 5 DEB            
1 43383U 08030F   19257.43330312 -.00000716  00000-0 -20132-1 0  9990
2 43383   1.8989 308.9944 7034042  51.7229 352.6012  2.31169698 89440
ARIANE 5 DEB            
1 43384U 08030G   19258.41186697 -.00000087  00000-0 -11818-3 0  9999
2 43384   1.3995 210.8731 7205154 227.0981  44.0817  2.29220328 89467